QPF
0.00 0.00 0.00 0.00 0.00 0.00 0.00 0.00 0.00 0.00 0.00 0.00 0.00 0.00 0.00 0.00 0.00 0.00 0.00 0.00 0.01 0.04 0.01 0.00 0.01 0.00 0.00 0.00 0.00 0.01 0.02 0.01 0.02 0.02 0.03 0.00 0.00 0.01 0.04 0.03 0.03 0.00 0.02
0.00 0.00 0.00 0.00 0.00 0.00 0.00 0.00 0.00 0.00 0.00 0.00 0.00 0.00 0.00 0.00 0.00 0.00 0.00 0.00 0.00 0.00 0.00 0.00 0.03 0.01 0.00 0.00 0.00 0.00 0.01 0.03 0.00 0.00 0.00 0.00 0.00 0.00 0.02 0.03 0.03 0.01 0.02
0.00 0.00 0.00 0.00 0.00 0.00 0.00 0.00 0.00 0.00 0.00 0.00 0.00 0.00 0.00 0.00 0.00 0.00 0.00 0.00 0.00 0.00 0.00 0.00 0.01 0.01 0.00 0.00 0.00 0.00 0.00 0.04 0.05 0.05 0.03 0.00 0.00 0.00 0.02 0.03 0.01 0.00 0.01
0.00 0.00 0.00 0.00 0.00 0.00 0.00 0.00 0.00 0.00 0.00 0.00 0.00 0.00 0.00 0.00 0.00 0.00 0.00 0.00 0.00 0.00 0.00 0.00 0.00 0.00 0.00 0.00 0.00 0.00 0.02 0.08 0.11 0.04 0.03 0.01 0.00 0.00 0.00 0.00 0.00 0.00 0.00
0.00 0.00 0.00 0.00 0.00 0.00 0.00 0.00 0.00 0.00 0.00 0.00 0.00 0.00 0.00 0.00 0.00 0.00 0.00 0.00 0.00 0.00 0.00 0.00 0.00 0.00 0.00 0.00 0.00 0.00 0.03 0.07 0.04 0.02 0.04 0.02 0.00 0.00 0.00 0.00 0.02 0.01 0.00
0.00 0.00 0.00 0.00 0.00 0.00 0.00 0.00 0.00 0.00 0.00 0.00 0.00 0.00 0.00 0.00 0.00 0.00 0.00 0.00 0.00 0.00 0.00 0.00 0.00 0.00 0.00 0.00 0.00 0.00 0.01 0.05 0.07 0.10 0.04 0.01 0.00 0.00 0.00 0.00 0.02 0.00 0.00
0.00 0.00 0.00 0.00 0.00 0.00 0.00 0.00 0.00 0.00 0.00 0.00 0.00 0.00 0.00 0.00 0.00 0.00 0.00 0.00 0.00 0.00 0.00 0.00 0.00 0.00 0.00 0.00 0.00 0.00 0.01 0.06 0.10 0.16 0.04 0.01 0.00 0.00 0.00 0.00 0.00 0.00 0.00
0.00 0.00 0.00 0.00 0.00 0.00 0.00 0.00 0.00 0.00 0.00 0.00 0.00 0.00 0.00 0.00 0.00 0.00 0.00 0.00 0.00 0.00 0.00 0.00 0.00 0.00 0.00 0.00 0.00 0.00 0.00 0.00 0.02 0.06 0.04 0.01 0.01 0.00 0.00 0.00 0.00 0.00 0.00
0.00 0.00 0.00 0.00 0.00 0.00 0.00 0.00 0.00 0.00 0.00 0.00 0.00 0.00 0.00 0.00 0.00 0.00 0.00 0.00 0.00 0.00 0.00 0.01 0.00 0.00 0.00 0.00 0.00 0.00 0.00 0.00 0.00 0.04 0.13 0.14 0.05 0.02 0.00 0.00 0.00 0.00 0.00
0.04 0.01 0.00 0.00 0.00 0.00 0.00 0.00 0.00 0.00 0.00 0.00 0.00 0.00 0.00 0.02 0.03 0.04 0.01 0.01 0.00 0.00 0.00 0.00 0.00 0.00 0.00 0.00 0.00 0.00 0.00 0.00 0.01 0.05 0.07 0.10 0.12 0.07 0.00 0.00 0.00 0.00 0.00
0.00 0.00 0.00 0.00 0.00 0.00 0.00 0.00 0.00 0.00 0.00 0.00 0.00 0.00 0.01 0.08 0.01 0.01 0.07 0.13 0.06 0.00 0.00 0.00 0.00 0.00 0.00 0.00 0.01 0.00 0.00 0.00 0.00 0.02 0.03 0.01 0.05 0.11 0.05 0.00 0.00 0.00 0.00
0.00 0.00 0.00 0.00 0.01 0.00 0.00 0.00 0.00 0.00 0.00 0.00 0.00 0.01 0.07 0.13 0.08 0.03 0.08 0.06 0.00 0.00 0.00 0.01 0.00 0.00 0.00 0.00 0.07 0.04 0.00 0.00 0.00 0.00 0.00 0.00 0.02 0.07 0.07 0.03 0.00 0.00 0.00
0.00 0.00 0.01 0.03 0.00 0.01 0.01 0.01 0.01 0.01 0.00 0.00 0.01 0.02 0.11 0.10 0.09 0.06 0.07 0.01 0.01 0.00 0.02 0.02 0.00 0.00 0.00 0.03 0.06 0.05 0.05 0.01 0.04 0.02 0.02 0.00 0.00 0.01 0.01 0.02 0.02 0.02 0.00
0.00 0.00 0.00 0.03 0.09 0.02 0.01 0.06 0.02 0.03 0.05 0.05 0.03 0.03 0.11 0.22 0.08 0.04 0.01 0.02 0.05 0.01 0.02 0.00 0.00 0.00 0.01 0.02 0.03 0.01 0.02 0.02 0.03 0.02 0.00 0.01 0.02 0.01 0.00 0.00 0.00 0.01 0.00
0.01 0.02 0.04 0.03 0.05 0.01 0.01 0.01 0.00 0.00 0.01 0.02 0.00 0.00 0.03 0.16 0.06 0.05 0.00 0.00 0.01 0.03 0.01 0.00 0.00 0.00 0.02 0.00 0.01 0.01 0.02 0.01 0.02 0.04 0.00 0.01 0.01 0.01 0.00 0.00 0.00 0.00 0.00
0.01 0.01 0.08 0.07 0.02 0.00 0.00 0.00 0.00 0.00 0.00 0.00 0.00 0.00 0.00 0.04 0.08 0.00 0.00 0.02 0.11 0.07 0.01 0.02 0.05 0.03 0.02 0.00 0.00 0.00 0.00 0.00 0.00 0.01 0.01 0.00 0.00 0.00 0.00 0.00 0.00 0.00 0.00
0.00 0.00 0.00 0.02 0.00 0.00 0.00 0.00 0.00 0.00 0.00 0.00 0.00 0.00 0.00 0.00 0.08 0.01 0.03 0.13 0.10 0.16 0.10 0.06 0.16 0.22 0.17 0.05 0.05 0.01 0.00 0.00 0.00 0.00 0.00 0.00 0.00 0.00 0.00 0.00 0.00 0.00 0.00
0.00 0.00 0.00 0.01 0.00 0.00 0.00 0.00 0.00 0.00 0.00 0.00 0.00 0.00 0.00 0.00 0.00 0.00 0.05 0.03 0.04 0.01 0.05 0.13 0.24 0.27 0.22 0.26 0.15 0.06 0.00 0.00 0.00 0.00 0.00 0.00 0.00 0.03 0.00 0.00 0.00 0.00 0.00
0.01 0.00 0.00 0.01 0.00 0.00 0.00 0.00 0.00 0.00 0.00 0.00 0.00 0.00 0.00 0.00 0.00 0.00 0.01 0.00 0.01 0.02 0.02 0.06 0.08 0.21 0.24 0.11 0.09 0.09 0.02 0.00 0.00 0.00 0.00 0.00 0.00 0.02 0.01 0.01 0.00 0.00 0.00
0.00 0.00 0.00 0.00 0.00 0.00 0.00 0.00 0.00 0.00 0.00 0.00 0.00 0.00 0.00 0.00 0.00 0.00 0.00 0.00 0.00 0.00 0.01 0.02 0.07 0.06 0.19 0.28 0.14 0.05 0.20 0.17 0.03 0.00 0.01 0.00 0.00 0.00 0.02 0.11 0.05 0.00 0.00
0.00 0.00 0.00 0.00 0.00 0.00 0.00 0.00 0.00 0.00 0.00 0.00 0.00 0.00 0.00 0.00 0.00 0.00 0.00 0.00 0.00 0.00 0.00 0.01 0.03 0.03 0.02 0.19 0.14 0.18 0.23 0.18 0.17 0.03 0.02 0.01 0.01 0.02 0.06 0.06 0.04 0.01 0.01
0.00 0.00 0.00 0.00 0.00 0.00 0.00 0.00 0.00 0.00 0.00 0.00 0.00 0.00 0.00 0.00 0.00 0.00 0.00 0.00 0.00 0.00 0.00 0.01 0.00 0.01 0.03 0.04 0.01 0.09 0.05 0.05 0.16 0.06 0.10 0.07 0.03 0.12 0.09 0.03 0.00 0.04 0.08
0.00 0.00 0.00 0.00 0.00 0.00 0.00 0.00 0.00 0.00 0.00 0.00 0.00 0.00 0.00 0.00 0.00 0.00 0.00 0.00 0.00 0.00 0.00 0.00 0.00 0.03 0.03 0.04 0.03 0.02 0.01 0.03 0.07 0.11 0.15 0.09 0.10 0.17 0.20 0.14 0.13 0.16 0.10
0.00 0.01 0.02 0.00 0.00 0.00 0.00 0.00 0.00 0.00 0.00 0.00 0.02 0.02 0.00 0.00 0.00 0.00 0.00 0.00 0.00 0.00 0.00 0.00 0.00 0.01 0.01 0.01 0.01 0.01 0.00 0.01 0.01 0.00 0.01 0.09 0.07 0.09 0.09 0.10 0.17 0.16 0.08
0.06 0.02 0.03 0.02 0.01 0.01 0.00 0.00 0.00 0.00 0.00 0.01 0.02 0.06 0.04 0.01 0.00 0.01 0.00 0.00 0.00 0.00 0.01 0.01 0.01 0.00 0.00 0.03 0.02 0.02 0.01 0.02 0.03 0.06 0.03 0.05 0.02 0.05 0.04 0.05 0.11 0.14 0.04
0.13 0.07 0.00 0.00 0.00 0.03 0.00 0.00 0.00 0.00 0.00 0.02 0.03 0.02 0.00 0.00 0.02 0.00 0.00 0.01 0.00 0.02 0.01 0.01 0.03 0.01 0.01 0.01 0.01 0.00 0.02 0.00 0.00 0.01 0.00 0.00 0.01 0.00 0.01 0.00 0.03 0.06 0.05
MSLP
1014.85 1014.88 1015.04 1015.35 1015.73 1015.99 1016.18 1016.39 1016.72 1016.95 1016.99 1016.95 1017.01 1017.07 1017.18 1017.24 1017.20 1017.20 1017.26 1017.37 1017.49 1017.63 1017.71 1017.77 1017.85 1017.83 1017.92 1018.02 1018.37 1018.61 1018.58 1018.78 1018.93 1019.11 1019.17 1019.23 1019.45 1019.67 1019.81 1019.84 1019.84 1019.94 1020.01
1014.07 1014.62 1014.95 1015.25 1015.69 1016.10 1016.29 1016.46 1016.81 1017.04 1017.13 1017.18 1017.16 1017.24 1017.24 1017.27 1017.35 1017.33 1017.38 1017.43 1017.61 1017.76 1017.78 1017.89 1017.96 1018.08 1018.10 1018.20 1018.37 1018.53 1018.73 1018.92 1018.98 1019.09 1019.33 1019.50 1019.67 1019.77 1019.95 1020.04 1020.25 1020.29 1020.22
1014.08 1014.56 1014.93 1015.24 1015.71 1016.09 1016.36 1016.50 1016.82 1017.16 1017.34 1017.39 1017.40 1017.43 1017.48 1017.51 1017.54 1017.52 1017.49 1017.53 1017.67 1017.92 1017.96 1017.94 1018.13 1018.34 1018.48 1018.46 1018.48 1018.75 1018.90 1019.07 1019.30 1019.41 1019.64 1019.72 1019.71 1019.95 1020.07 1020.32 1020.41 1020.48 1020.41
1013.89 1014.55 1015.02 1015.34 1015.78 1016.08 1016.41 1016.69 1016.91 1017.23 1017.44 1017.53 1017.56 1017.58 1017.61 1017.68 1017.70 1017.66 1017.65 1017.69 1017.81 1017.93 1018.02 1018.04 1018.18 1018.36 1018.64 1018.66 1018.67 1018.97 1019.05 1019.49 1019.53 1019.48 1019.89 1019.93 1019.86 1020.09 1020.21 1020.43 1020.64 1020.64 1020.70
1014.01 1014.62 1015.16 1015.45 1015.80 1016.06 1016.48 1016.79 1017.05 1017.28 1017.49 1017.59 1017.69 1017.75 1017.76 1017.80 1017.86 1017.85 1017.84 1017.93 1018.06 1018.10 1018.12 1018.16 1018.25 1018.51 1018.73 1018.83 1018.91 1019.09 1019.29 1019.42 1019.38 1019.35 1019.69 1020.12 1020.12 1020.28 1020.30 1020.39 1020.69 1020.77 1020.82
1014.07 1014.74 1015.21 1015.53 1015.78 1016.09 1016.53 1016.84 1017.12 1017.30 1017.52 1017.70 1017.90 1018.10 1018.10 1018.07 1018.08 1018.12 1018.15 1018.26 1018.34 1018.30 1018.28 1018.36 1018.48 1018.71 1018.79 1018.89 1018.95 1019.22 1019.45 1019.60 1019.40 1019.25 1019.69 1020.03 1020.08 1020.31 1020.45 1020.55 1020.64 1020.71 1020.83
1014.06 1014.70 1015.27 1015.58 1015.89 1016.19 1016.61 1016.90 1017.16 1017.36 1017.65 1018.01 1018.11 1018.22 1018.32 1018.36 1018.38 1018.36 1018.36 1018.41 1018.42 1018.39 1018.33 1018.39 1018.60 1018.83 1019.06 1019.15 1019.08 1019.16 1019.43 1019.71 1019.78 1019.99 1020.04 1019.96 1019.93 1020.05 1020.18 1020.60 1020.68 1020.90 1021.11
1013.80 1014.69 1015.20 1015.64 1015.97 1016.42 1016.67 1016.96 1017.20 1017.51 1017.83 1018.12 1018.21 1018.30 1018.47 1018.57 1018.55 1018.53 1018.53 1018.57 1018.55 1018.48 1018.45 1018.41 1018.56 1018.83 1019.06 1019.26 1019.31 1019.19 1019.16 1019.20 1019.35 1019.73 1019.65 1019.65 1019.64 1019.77 1020.00 1020.34 1020.60 1020.92 1021.19
1013.87 1014.75 1015.33 1015.69 1016.09 1016.60 1016.86 1017.12 1017.37 1017.66 1017.85 1018.08 1018.29 1018.40 1018.59 1018.64 1018.49 1018.51 1018.59 1018.64 1018.70 1018.71 1018.71 1018.69 1018.66 1018.81 1019.09 1019.23 1019.24 1019.28 1019.19 1019.04 1019.22 1019.47 1018.98 1019.38 1019.47 1019.68 1019.81 1020.09 1020.40 1020.77 1021.00
1014.46 1014.84 1015.44 1015.87 1016.26 1016.75 1016.97 1017.12 1017.42 1017.70 1017.94 1018.11 1018.16 1018.28 1018.39 1018.44 1018.52 1018.47 1018.38 1018.42 1018.52 1018.75 1018.82 1018.75 1018.71 1018.79 1018.88 1019.12 1019.25 1019.25 1019.09 1018.91 1019.02 1019.39 1019.70 1019.48 1019.57 1019.72 1019.65 1019.79 1020.24 1020.53 1020.79
1014.56 1014.94 1015.36 1015.72 1016.11 1016.62 1016.88 1017.05 1017.25 1017.52 1017.81 1017.81 1017.86 1018.10 1018.17 1018.69 1018.39 1018.79 1018.44 1018.32 1018.39 1018.70 1018.86 1018.79 1018.68 1018.59 1018.62 1018.77 1018.89 1019.04 1019.00 1018.98 1018.98 1018.80 1019.28 1019.06 1019.24 1019.58 1019.69 1019.72 1019.88 1020.21 1020.49
1014.26 1014.74 1015.05 1015.12 1015.67 1016.31 1016.47 1016.86 1017.07 1017.32 1017.63 1017.60 1017.88 1018.00 1018.63 1019.15 1018.93 1018.63 1018.76 1018.62 1018.54 1018.62 1018.69 1018.61 1018.50 1018.47 1018.31 1018.39 1018.59 1018.66 1018.76 1018.80 1018.92 1018.79 1018.83 1018.72 1018.92 1019.03 1019.44 1019.62 1019.67 1019.92 1020.18
1013.63 1014.29 1014.79 1015.12 1015.37 1016.08 1016.37 1016.72 1016.95 1017.36 1017.42 1017.53 1017.74 1018.27 1018.74 1018.66 1018.60 1018.74 1018.83 1018.74 1018.64 1018.46 1018.56 1018.43 1018.43 1018.34 1018.45 1018.34 1018.40 1018.51 1018.53 1018.76 1018.98 1018.82 1018.76 1018.54 1018.42 1018.56 1018.81 1019.15 1019.34 1019.62 1019.88
1013.13 1013.85 1014.32 1014.76 1015.23 1015.69 1016.28 1016.61 1016.48 1017.08 1017.29 1017.44 1017.53 1018.04 1018.40 1018.47 1018.39 1018.80 1018.71 1018.39 1018.39 1018.40 1018.39 1018.21 1018.24 1018.23 1018.30 1018.32 1018.30 1018.35 1018.36 1018.40 1018.45 1018.26 1018.06 1018.48 1018.39 1018.53 1018.67 1018.83 1019.05 1019.31 1019.62
1013.12 1013.62 1014.31 1014.76 1015.25 1015.47 1015.99 1016.17 1016.27 1016.53 1016.50 1016.73 1016.98 1017.20 1017.68 1018.07 1018.41 1018.63 1018.47 1018.18 1018.20 1018.05 1017.88 1017.88 1017.98 1017.91 1017.99 1018.04 1017.89 1017.91 1017.99 1018.00 1017.97 1017.87 1017.97 1018.07 1018.13 1018.27 1018.36 1018.50 1018.76 1019.02 1019.22
1013.34 1013.65 1013.92 1014.42 1014.81 1014.94 1015.52 1015.69 1015.68 1015.97 1016.08 1016.06 1016.50 1016.73 1017.06 1017.90 1018.48 1018.57 1017.69 1017.65 1017.85 1018.00 1018.14 1018.29 1017.93 1017.89 1017.94 1017.81 1017.66 1017.51 1017.43 1017.01 1017.22 1017.13 1017.46 1017.70 1017.98 1018.24 1018.32 1018.28 1018.34 1018.67 1018.97
1012.73 1013.43 1013.91 1013.82 1014.29 1014.63 1015.07 1015.37 1015.49 1015.26 1015.45 1016.02 1016.02 1016.28 1016.76 1017.25 1017.61 1017.82 1017.59 1017.21 1017.77 1017.67 1017.94 1017.99 1018.24 1018.25 1018.06 1017.61 1017.85 1017.33 1016.91 1016.27 1016.47 1016.68 1016.98 1017.51 1017.74 1017.77 1017.69 1017.70 1017.93 1018.28 1018.62
1012.37 1012.93 1013.72 1013.78 1014.19 1014.25 1014.61 1014.88 1015.36 1015.40 1015.32 1015.63 1016.01 1016.03 1016.09 1016.65 1016.81 1017.66 1017.56 1017.25 1017.27 1017.45 1017.69 1017.81 1018.19 1018.44 1018.08 1017.84 1017.57 1017.08 1016.72 1016.39 1015.99 1016.20 1016.85 1017.30 1017.37 1017.47 1017.80 1018.06 1018.21 1018.46 1018.71
1011.87 1012.39 1013.05 1013.32 1013.67 1014.01 1014.19 1014.54 1014.88 1015.18 1015.30 1015.33 1015.60 1015.95 1015.89 1016.03 1016.23 1016.70 1016.89 1016.67 1016.79 1017.05 1017.56 1017.93 1017.79 1017.75 1018.03 1017.64 1017.54 1017.19 1017.04 1016.53 1016.16 1015.94 1016.19 1016.49 1016.78 1016.99 1017.43 1017.55 1018.03 1018.06 1018.30
1010.85 1011.72 1012.40 1013.02 1013.56 1013.72 1014.20 1014.51 1014.83 1015.14 1015.06 1015.11 1015.06 1015.52 1015.73 1016.07 1016.14 1016.20 1016.39 1016.54 1016.37 1016.99 1017.32 1017.43 1017.22 1017.74 1017.66 1017.36 1017.45 1017.69 1017.29 1017.15 1016.53 1016.39 1016.04 1015.88 1016.15 1016.46 1016.96 1017.35 1017.53 1017.86 1017.80
1010.62 1011.37 1012.09 1012.60 1013.06 1013.83 1014.34 1014.54 1014.76 1015.00 1015.01 1015.07 1015.01 1015.18 1015.55 1015.95 1016.10 1016.11 1016.13 1016.35 1016.11 1016.81 1017.07 1016.85 1016.90 1017.21 1017.40 1017.45 1017.41 1017.72 1017.13 1017.15 1016.85 1016.75 1016.41 1016.35 1015.61 1015.73 1016.12 1017.01 1017.33 1017.76 1017.59
1010.55 1011.23 1012.23 1012.62 1013.31 1013.41 1013.82 1014.10 1014.45 1014.85 1014.79 1014.79 1014.69 1014.87 1015.18 1015.57 1015.72 1015.97 1016.11 1016.35 1016.47 1016.58 1016.89 1016.93 1016.58 1016.97 1017.10 1017.07 1017.44 1017.96 1017.81 1017.39 1016.89 1016.84 1016.90 1016.52 1016.05 1016.14 1016.55 1016.27 1016.47 1016.92 1016.98
1010.67 1011.13 1011.79 1012.59 1013.22 1013.56 1013.87 1014.20 1014.46 1014.77 1014.82 1014.88 1015.03 1015.01 1015.03 1015.12 1015.23 1015.42 1015.68 1015.89 1016.27 1016.45 1016.67 1016.87 1016.59 1016.63 1016.83 1016.82 1016.94 1017.11 1017.52 1017.52 1017.37 1016.90 1016.80 1016.04 1016.20 1015.93 1016.95 1017.28 1016.34 1017.14 1017.53
1011.05 1010.93 1011.58 1012.28 1012.92 1013.34 1013.76 1014.09 1014.51 1014.81 1015.09 1014.99 1014.90 1014.89 1014.82 1014.59 1014.95 1015.24 1015.38 1015.58 1015.86 1016.31 1016.54 1016.70 1016.70 1016.69 1016.96 1016.98 1016.60 1016.21 1016.33 1016.28 1016.83 1017.15 1016.92 1016.21 1016.05 1016.66 1017.49 1016.72 1016.98 1016.96 1017.28
1012.81 1012.09 1011.92 1011.88 1012.54 1012.87 1013.34 1013.72 1014.16 1014.46 1014.59 1014.62 1014.71 1014.92 1015.16 1014.94 1014.70 1014.79 1015.13 1015.41 1015.76 1015.98 1016.24 1016.37 1016.52 1016.70 1016.61 1016.74 1016.55 1016.32 1015.93 1015.74 1016.18 1016.67 1016.83 1016.87 1016.73 1016.69 1016.82 1016.29 1016.22 1016.96 1016.76
1011.93 1013.49 1012.03 1012.02 1012.26 1012.76 1012.88 1013.25 1013.58 1013.96 1014.23 1014.43 1014.56 1014.92 1014.79 1014.71 1014.69 1014.52 1014.49 1014.82 1015.12 1015.56 1015.73 1015.96 1016.23 1016.37 1016.29 1016.37 1016.42 1016.50 1016.48 1016.28 1016.05 1016.34 1016.57 1016.42 1016.51 1016.08 1015.57 1015.89 1016.75 1016.84 1016.48
Thickness
5777 5777 5775 5773 5771 5768 5766 5763 5759 5755 5754 5751 5749 5746 5744 5744 5745 5746 5746 5745 5745 5744 5744 5743 5743 5745 5746 5745 5740 5737 5740 5739 5739 5740 5740 5737 5736 5733 5732 5733 5732 5732 5730
5786 5781 5778 5776 5772 5769 5766 5763 5759 5755 5752 5750 5749 5745 5744 5746 5747 5748 5748 5747 5746 5745 5746 5744 5744 5744 5745 5743 5742 5740 5739 5739 5740 5739 5736 5734 5733 5734 5732 5731 5730 5730 5730
5787 5782 5779 5778 5774 5771 5767 5765 5761 5756 5750 5749 5748 5746 5745 5745 5747 5748 5750 5750 5749 5746 5746 5746 5745 5742 5741 5742 5743 5742 5742 5739 5736 5735 5734 5735 5736 5734 5734 5730 5730 5730 5731
5789 5783 5780 5779 5775 5772 5768 5764 5762 5757 5753 5750 5749 5747 5746 5746 5747 5749 5750 5751 5750 5749 5748 5748 5746 5743 5740 5740 5742 5742 5741 5737 5738 5738 5735 5733 5736 5734 5733 5731 5728 5730 5729
5788 5784 5780 5779 5777 5774 5769 5765 5762 5759 5757 5754 5751 5749 5748 5748 5748 5749 5749 5749 5749 5749 5749 5749 5748 5744 5741 5740 5742 5742 5739 5740 5742 5743 5740 5737 5736 5733 5734 5733 5729 5729 5730
5789 5784 5780 5779 5778 5775 5769 5765 5763 5762 5760 5757 5753 5749 5748 5748 5748 5748 5747 5747 5747 5748 5750 5749 5747 5744 5743 5743 5743 5742 5739 5740 5744 5746 5742 5739 5736 5734 5734 5731 5730 5732 5732
5790 5784 5780 5780 5778 5774 5769 5766 5765 5764 5761 5756 5754 5753 5751 5750 5748 5748 5747 5747 5747 5749 5752 5752 5749 5745 5743 5742 5744 5743 5741 5738 5739 5739 5740 5739 5740 5737 5736 5732 5733 5732 5731
5792 5785 5782 5780 5778 5772 5770 5768 5767 5764 5760 5757 5756 5755 5753 5752 5751 5750 5749 5748 5748 5749 5751 5753 5752 5748 5745 5743 5743 5745 5745 5744 5743 5742 5743 5745 5743 5741 5738 5737 5736 5733 5730
5790 5785 5781 5780 5777 5770 5769 5767 5766 5764 5762 5759 5756 5755 5751 5750 5752 5751 5751 5750 5749 5748 5748 5751 5753 5751 5748 5746 5745 5745 5747 5748 5746 5744 5747 5747 5745 5742 5741 5741 5738 5735 5733
5787 5784 5781 5778 5776 5771 5770 5769 5767 5764 5761 5759 5758 5757 5756 5754 5754 5752 5753 5754 5753 5749 5747 5751 5753 5753 5752 5748 5746 5745 5747 5749 5749 5746 5745 5747 5743 5744 5743 5743 5740 5738 5735
5786 5784 5780 5780 5780 5775 5774 5772 5771 5768 5762 5764 5764 5761 5760 5756 5759 5754 5756 5758 5758 5753 5750 5752 5755 5756 5756 5754 5753 5749 5749 5751 5751 5753 5750 5750 5749 5748 5745 5744 5744 5741 5739
5785 5784 5784 5785 5783 5777 5777 5776 5775 5772 5767 5769 5765 5764 5757 5754 5756 5758 5756 5757 5760 5759 5756 5756 5759 5758 5761 5761 5759 5756 5754 5756 5756 5755 5757 5756 5754 5752 5748 5747 5747 5744 5742
5791 5788 5784 5784 5784 5780 5779 5779 5778 5773 5772 5772 5767 5760 5757 5758 5759 5757 5759 5760 5762 5763 5760 5761 5763 5764 5761 5763 5763 5761 5759 5757 5756 5757 5759 5760 5759 5758 5755 5753 5751 5748 5746
5792 5789 5792 5787 5785 5782 5779 5779 5782 5777 5775 5775 5772 5765 5763 5759 5762 5760 5761 5763 5763 5764 5764 5767 5768 5767 5765 5764 5764 5763 5763 5763 5764 5763 5764 5762 5761 5760 5759 5758 5756 5753 5748
5792 5791 5789 5789 5787 5786 5782 5781 5783 5783 5782 5783 5777 5775 5771 5767 5767 5764 5764 5765 5766 5768 5770 5772 5772 5771 5769 5769 5770 5768 5767 5767 5769 5767 5767 5763 5763 5763 5763 5762 5759 5755 5753
5794 5789 5789 5789 5790 5790 5788 5786 5789 5789 5788 5787 5784 5784 5779 5771 5768 5765 5770 5773 5774 5773 5770 5769 5773 5774 5773 5772 5771 5772 5774 5776 5776 5776 5772 5770 5767 5764 5764 5764 5762 5759 5755
5798 5791 5787 5792 5792 5793 5793 5789 5790 5795 5795 5789 5789 5788 5787 5779 5776 5772 5776 5783 5779 5777 5773 5772 5772 5772 5773 5776 5772 5777 5781 5785 5783 5782 5777 5773 5772 5771 5771 5770 5769 5767 5762
5801 5795 5790 5794 5795 5797 5796 5793 5790 5794 5795 5793 5789 5791 5791 5788 5786 5780 5781 5786 5786 5782 5778 5775 5772 5768 5773 5775 5776 5782 5787 5786 5787 5787 5782 5777 5776 5774 5770 5767 5767 5765 5764
5803 5802 5799 5799 5800 5800 5801 5797 5796 5795 5796 5797 5795 5794 5794 5794 5794 5791 5788 5790 5790 5787 5781 5778 5777 5777 5775 5778 5777 5783 5785 5789 5791 5790 5790 5785 5782 5780 5776 5775 5769 5770 5768
5816 5809 5805 5803 5801 5802 5800 5799 5798 5797 5798 5800 5800 5797 5795 5792 5794 5795 5794 5792 5793 5787 5784 5785 5781 5779 5781 5781 5781 5780 5782 5782 5788 5789 5793 5789 5789 5784 5779 5780 5777 5771 5774
5822 5817 5809 5805 5802 5801 5799 5799 5798 5795 5799 5801 5801 5798 5796 5792 5791 5792 5795 5793 5794 5786 5784 5791 5792 5785 5784 5785 5784 5780 5778 5784 5786 5787 5789 5790 5794 5790 5791 5780 5778 5772 5774
5822 5817 5808 5806 5804 5807 5805 5804 5803 5800 5801 5801 5801 5801 5798 5795 5793 5792 5792 5792 5792 5790 5786 5787 5793 5790 5790 5790 5780 5773 5768 5776 5785 5785 5787 5791 5788 5791 5777 5783 5785 5780 5779
5825 5823 5818 5809 5805 5805 5804 5803 5802 5798 5797 5796 5795 5797 5798 5798 5797 5796 5794 5793 5790 5790 5786 5785 5789 5789 5786 5789 5788 5780 5767 5764 5776 5783 5787 5794 5793 5794 5762 5770 5779 5775 5775
5822 5828 5823 5818 5812 5809 5807 5803 5797 5791 5786 5792 5794 5795 5797 5798 5797 5794 5793 5792 5790 5788 5786 5785 5785 5785 5782 5779 5786 5793 5791 5790 5777 5773 5781 5791 5793 5787 5776 5778 5776 5778 5776
5809 5815 5821 5822 5815 5814 5810 5806 5801 5796 5797 5797 5795 5793 5792 5795 5796 5795 5792 5791 5789 5789 5786 5785 5784 5781 5782 5781 5781 5784 5789 5793 5787 5777 5774 5775 5781 5780 5777 5782 5783 5775 5771
5819 5802 5818 5820 5818 5815 5814 5810 5805 5799 5798 5795 5794 5790 5790 5792 5793 5794 5794 5792 5789 5788 5787 5785 5784 5782 5781 5780 5780 5778 5778 5778 5781 5779 5778 5779 5778 5785 5789 5790 5775 5771 5778